Washington, GA

9:32 AM EDT on April 24, 2017 (GMT -0400)
Washington-Wilkes County

Weather History for KIIY - July, 2013

Change the Weather History Date:

Tuesday, July 16, 2013

  Actual Average (KDBN) Record (KDBN)
Temperature  
Mean Temperature 78 °F -  
Max Temperature 87 °F 94 °F 103 °F (1981)
Min Temperature 69 °F 68 °F 55 °F (1967)
Cooling Degree Days 13    
Growing Degree Days 28 (Base 50)    
Moisture  
Dew Point 73 °F    
Average Humidity 91    
Maximum Humidity 100    
Minimum Humidity 52    
Precipitation  
Precipitation 0.00 in - - ()
Sea Level Pressure  
Sea Level Pressure 30.29 in    
Wind  
Wind Speed 1 mph (NE)    
Max Wind Speed 5 mph    
Max Gust Speed -    
Visibility 7 miles    
Events Fog    
Averages and records for this station are not official NWS values.
T = Trace of Precipitation, MM = Missing Value Source: NWS Daily Summary

Daily Weather History Graph

Daily Weather History Graph

Search for Another Location

Airport or City:

Trip Planner

Search our weather history database for the weather conditions in past years. The results will help you decide how hot, cold, wet, or windy it might be!

Date:

Astronomy

Jul. 16, 2013 Rise Set
Actual Time 6:32 AM EDT 8:42 PM EDT
Civil Twilight 6:04 AM EDT 9:10 PM EDT
Nautical Twilight 5:29 AM EDT 9:44 PM EDT
Astronomical Twilight 4:52 AM EDT 10:22 PM EDT
Moon 2:28 PM EDT (7/16) 12:53 AM EDT (7/16)
Length of Visible Light 15h 06m
Length of Day
14h 09m
First Quarter, 56% of the Moon is Illuminated
Jul 16
First Quarter
Jul 22
Full
Jul 29
Last Quarter
Aug 6
New
Aug 14
First Quarter

Hourly Weather History & Observations

Time (EDT) Temp. Heat Index Dew Point Humidity Pressure Visibility Wind Dir Wind Speed Gust Speed Precip Events Conditions
12:15 AM 71.6 °F - 71.6 °F 100% 30.30 in 10.0 mi Calm Calm - N/A   Clear
12:35 AM 71.6 °F - 71.6 °F 100% 30.30 in 10.0 mi Calm Calm - N/A   Clear
12:55 AM 71.6 °F - 71.6 °F 100% 30.30 in 10.0 mi NNE 3.5 mph - N/A   Clear
1:15 AM 71.6 °F - 71.6 °F 100% 30.30 in 10.0 mi Calm Calm - N/A   Clear
1:35 AM 69.8 °F - 69.8 °F 100% 30.29 in 10.0 mi North 3.5 mph - N/A   Clear
1:55 AM 69.8 °F - 69.8 °F 100% 30.29 in 10.0 mi Calm Calm - N/A   Clear
2:15 AM 71.6 °F - 71.6 °F 100% 30.29 in 7.0 mi Calm Calm - N/A   Clear
2:35 AM 69.8 °F - 69.8 °F 100% 30.29 in 7.0 mi Calm Calm - N/A   Clear
2:55 AM 69.8 °F - 69.8 °F 100% 30.29 in 7.0 mi Calm Calm - N/A   Clear
3:15 AM 69.8 °F - 69.8 °F 100% 30.29 in 5.0 mi Calm Calm - N/A   Clear
3:35 AM 69.8 °F - 69.8 °F 100% 30.29 in 7.0 mi Calm Calm - N/A   Clear
3:55 AM 69.8 °F - 69.8 °F 100% 30.29 in 7.0 mi Calm Calm - N/A   Scattered Clouds
4:15 AM 69.8 °F - 69.8 °F 100% 30.28 in 1.2 mi Calm Calm - N/A   Overcast
4:35 AM 69.8 °F - 69.8 °F 100% 30.28 in 1.5 mi Calm Calm - N/A   Overcast
4:55 AM 69.8 °F - 69.8 °F 100% 30.28 in 2.5 mi Calm Calm - N/A   Overcast
5:15 AM 69.8 °F - 69.8 °F 100% 30.28 in 0.8 mi Calm Calm - N/A   Overcast
5:35 AM 69.8 °F - 69.8 °F 100% 30.28 in 2.0 mi Calm Calm - N/A   Overcast
5:55 AM 69.8 °F - 69.8 °F 100% 30.29 in 0.5 mi Calm Calm - N/A Fog Fog
6:15 AM 69.8 °F - 69.8 °F 100% 30.30 in 1.2 mi NNE 3.5 mph - N/A   Overcast
6:35 AM 69.8 °F - 69.8 °F 100% 30.30 in 0.2 mi Calm Calm - N/A Fog Fog
7:15 AM 69.8 °F - 69.8 °F 100% 30.30 in 0.2 mi Calm Calm - N/A Fog Fog
7:35 AM 71.6 °F - 71.6 °F 100% 30.30 in 0.2 mi Calm Calm - N/A Fog Fog
7:55 AM 73.4 °F - 73.4 °F 100% 30.31 in 0.2 mi Calm Calm - N/A Fog Fog
8:15 AM 75.2 °F - 75.2 °F 100% 30.31 in 0.5 mi Calm Calm - N/A Fog Fog
8:35 AM 75.2 °F - 75.2 °F 100% 30.32 in 0.5 mi Calm Calm - N/A Fog Fog
8:55 AM 75.2 °F - 75.2 °F 100% 30.32 in 1.2 mi Calm Calm - N/A   Overcast
9:15 AM 75.2 °F - 75.2 °F 100% 30.33 in 3.0 mi Calm Calm - N/A   Overcast
9:35 AM 75.2 °F - 75.2 °F 100% 30.33 in 7.0 mi Calm Calm - N/A   Overcast
9:55 AM 75.2 °F - 75.2 °F 100% 30.33 in 10.0 mi Calm Calm - N/A   Overcast
10:15 AM 78.8 °F - 78.8 °F 100% 30.33 in 10.0 mi East 4.6 mph - N/A   Mostly Cloudy
10:35 AM 80.6 °F 87.1 °F 77.0 °F 89% 30.33 in 10.0 mi ENE 4.6 mph - N/A   Mostly Cloudy
10:55 AM 80.6 °F 87.1 °F 77.0 °F 89% 30.33 in 10.0 mi Calm Calm - N/A   Mostly Cloudy
11:15 AM 82.4 °F 90.9 °F 77.0 °F 84% 30.33 in 10.0 mi Calm Calm - N/A   Mostly Cloudy
11:55 AM 82.4 °F 88.2 °F 73.4 °F 74% 30.32 in 10.0 mi ENE 3.5 mph - N/A   Scattered Clouds
12:15 PM 84.2 °F 90.9 °F 73.4 °F 70% 30.32 in 10.0 mi NNE 3.5 mph - N/A   Scattered Clouds
12:35 PM 86.0 °F 93.4 °F 73.4 °F 66% 30.32 in 10.0 mi East 4.6 mph - N/A   Scattered Clouds
12:55 PM 86.0 °F 91.8 °F 71.6 °F 62% 30.31 in 10.0 mi SE 3.5 mph - N/A   Scattered Clouds
1:15 PM 86.0 °F 91.8 °F 71.6 °F 62% 30.31 in 10.0 mi NE 3.5 mph - N/A   Clear
1:35 PM 86.0 °F 89.4 °F 68.0 °F 55% 30.30 in 10.0 mi ESE 4.6 mph - N/A   Clear
1:55 PM 86.0 °F 90.4 °F 69.8 °F 58% 30.30 in 10.0 mi ENE 3.5 mph - N/A   Clear
2:15 PM 86.0 °F 90.4 °F 69.8 °F 58% 30.30 in 10.0 mi NE 4.6 mph - N/A   Scattered Clouds
2:35 PM 86.0 °F 90.4 °F 69.8 °F 58% 30.29 in 10.0 mi East 3.5 mph - N/A   Scattered Clouds
2:55 PM 86.0 °F 90.4 °F 69.8 °F 58% 30.28 in 10.0 mi Calm Calm - N/A   Clear
3:15 PM 87.8 °F 91.4 °F 68.0 °F 52% 30.28 in 10.0 mi East 3.5 mph - N/A   Clear
8:15 PM 84.2 °F 94.1 °F 77.0 °F 79% 30.25 in 10.0 mi Calm Calm - N/A   Clear
8:35 PM 82.4 °F 92.4 °F 78.8 °F 89% 30.25 in 10.0 mi Calm Calm - N/A   Clear
8:55 PM 80.6 °F 87.1 °F 77.0 °F 89% 30.25 in 10.0 mi Calm Calm - N/A   Clear
9:15 PM 80.6 °F 88.1 °F 78.8 °F 94% 30.26 in 10.0 mi Calm Calm - N/A   Clear
9:35 PM 78.8 °F - 78.8 °F 100% 30.26 in 10.0 mi Calm Calm - N/A   Clear
9:55 PM 80.6 °F 88.1 °F 78.8 °F 94% 30.27 in 10.0 mi Calm Calm - N/A   Clear
10:15 PM 77.0 °F - 77.0 °F 100% 30.27 in 10.0 mi Calm Calm - N/A   Clear
10:35 PM 77.0 °F - 77.0 °F 100% 30.27 in 10.0 mi Calm Calm - N/A   Clear
10:55 PM 77.0 °F - 77.0 °F 100% 30.28 in 10.0 mi Calm Calm - N/A   Clear
11:15 PM 75.2 °F - 75.2 °F 100% 30.28 in 10.0 mi WNW 3.5 mph - N/A   Clear
11:35 PM 75.2 °F - 75.2 °F 100% 30.28 in 10.0 mi Calm Calm - N/A   Clear
11:55 PM 75.2 °F - 75.2 °F 100% 30.27 in 10.0 mi NW 3.5 mph - N/A   Clear